[ hide orbit diagram ]
For accurate long-term ephemerides, please instead use our Horizons system.This orbit viewer was implemented using two-body methods, and hence should not be used for determining accurate long-term trajectories (over several years or decades) or planetary encounter circumstances.
Orbital Elements at Epoch 2459000.5 (2020-May-31.0) TDB
Reference: JPL 23 (heliocentric ecliptic J2000)
Element | Value | Uncertainty (1-sigma) | Units |
e | .1776349470003244 | 4.1123e-08 | |
a | 3.145158150093813 | 1.841e-08 | au |
q | 2.58646814879426 | 1.3474e-07 | au |
i | 1.824461067185875 | 3.9097e-06 | deg |
node | 138.5913263282542 | 0.00012621 | deg |
peri | 245.5524063449355 | 0.00012662 | deg |
M | 287.8282707610967 | 1.15e-05 | deg |
tp | 2459408.938591277841 (2021-Jul-13.43859128) | 6.7158e-05 | TDB |
period | 2037.33365419716 5.58 | 1.7888e-05 4.897e-08 | d yr |
n | .176701542851538 | 1.5515e-09 | deg/d |
Q | 3.703848151393366 | 2.168e-08 | au |
|
| | Orbit Determination Parameters
Additional Information
|
[ show covariance matrix ]
Physical Parameter Table
Parameter |
Symbol |
Value |
Units |
Sigma |
Reference |
Notes |
absolute magnitude |
H |
13.9 |
|
n/a |
MPO449037 |
|
diameter |
diameter |
8.345 |
km |
2.442 |
urn:nasa:pds:neowise_diameters_albedos::2.0[mainbelt] (http://adsabs.harvard.edu/abs/2017AJ....154..168M) |
|
geometric albedo |
albedo |
0.052 |
|
0.040 |
urn:nasa:pds:neowise_diameters_albedos::2.0[mainbelt] (http://adsabs.harvard.edu/abs/2016AJ....152...63N) |
|
|
12758 Kabudari | Discovered 1993 Sept. 22 by O. A. Naranjo at Mérida. |
Kabudari, or "big tree" in the Arawak indigenous language, is a native name from the municipality of Palavecino, in the Lara state of Venezuela. Sadly, the great forests in this area, so rich in wildlife, are gradually disappearing. The name was chosen by two young girls from a primary school in the area. |
NOTE: some special characters may not display properly (any characters within {} are an attempt to place the proper accent above a character) |
Reference: 20080321/MPCPages.arc | Last Updated: 2008-03-26 |
|
[ hide close-approach data ]
Close-Approach Data ...sorted by Date/Time (TDB)
|
Date/Time (TDB) |
Time Uncertainty (days_HH:MM) |
Body |
Nominal Distance (au) |
Minimum Distance (au) |
Maximum Distance (au) |
V-relative (km/s) |
V-infinity (km/s) |
JD (TDB) |
Time Uncertainty (minutes) |
Semi-major axis (km) |
Semi-minor axis (km) |
range-LOV angle (deg) |
N-sigma |
BP |
Orbit Ref. |
Reference |
Modified |
1936-Jun-11 21:39 |
00:02 |
Jupiter |
1.93152728732972 |
1.93152649525912 |
1.93152807939998 |
2.64346700170835 |
2.47201704975573 |
2428331.402390552 |
2.09223102416513 |
41.5184232473903 |
15.0728553442271 |
-85.8194759595043 |
1459853.70582857 |
T |
23 |
CATAB v2.0f-lin.ifort 2020-Dec-18 02:50:31 |
2020-Dec-18 02:50 |
1946-Oct-26 23:00 |
00:02 |
Jupiter |
1.76406468003102 |
1.76406433281984 |
1.76406502724199 |
1.72703410277376 |
1.42208966489456 |
2432120.458341797 |
1.76140004619965 |
86.7443850272908 |
31.5923265334208 |
-86.6577029652653 |
2644346.06159097 |
T |
23 |
CATAB v2.0f-lin.ifort 2020-Dec-18 02:50:31 |
2020-Dec-18 02:50 |
1957-Mar-17 13:01 |
00:01 |
Jupiter |
1.85037460552787 |
1.85037398852613 |
1.85037522252992 |
2.03172374422755 |
1.79231323653106 |
2435915.042228913 |
1.43655464182814 |
88.4354267108513 |
9.47962738873037 |
-83.305507824578 |
2527021.31703723 |
T |
23 |
CATAB v2.0f-lin.ifort 2020-Dec-18 02:50:31 |
2020-Dec-18 02:50 |
2030-Jul-03 16:19 |
< 00:01 |
Jupiter |
1.79086976534813 |
1.79086944017662 |
1.79087009051954 |
1.89749124599446 |
1.62927554083357 |
2462686.179533614 |
0.455816765251471 |
48.4946389488356 |
16.958593581784 |
-86.3726909030268 |
2891678.15425014 |
T |
23 |
CATAB v2.0f-lin.ifort 2020-Dec-18 02:50:31 |
2020-Dec-18 02:50 |
2040-Nov-21 00:32 |
< 00:01 |
Jupiter |
1.78614189134373 |
1.78614148610139 |
1.78614229658577 |
1.77555082005619 |
1.48463551388243 |
2466479.522373755 |
0.759875696045484 |
67.1128542361266 |
28.0317165014604 |
-80.2713888751423 |
2472677.41319298 |
T |
23 |
CATAB v2.0f-lin.ifort 2020-Dec-18 02:50:31 |
2020-Dec-18 02:50 |
2114-Mar-13 08:47 |
00:03 |
Jupiter |
1.85327063397766 |
1.85326991244299 |
1.8532713555118 |
2.25672239134984 |
2.04418980356688 |
2493253.865898820 |
2.63181219278666 |
46.0356084281126 |
9.20190298556184 |
89.580997447553 |
1341446.9691985 |
T |
23 |
CATAB v2.0f-lin.ifort 2020-Dec-18 02:50:31 |
2020-Dec-18 02:50 |
2124-Jul-27 01:35 |
00:03 |
Jupiter |
1.75684191282309 |
1.75684153014574 |
1.75684229550045 |
1.68547364990004 |
1.36987795400059 |
2497042.565952373 |
2.91416462545209 |
135.884226473085 |
40.753094938693 |
88.6203169879729 |
2457385.72117774 |
T |
23 |
CATAB v2.0f-lin.ifort 2020-Dec-18 02:50:31 |
2020-Dec-18 02:50 |
2134-Dec-16 16:56 |
00:03 |
Jupiter |
1.92058779282896 |
1.92058675633361 |
1.9205888293278 |
2.3261032782802 |
2.12807691865825 |
2500837.205422170 |
3.23257561663544 |
161.620956853619 |
5.05406926345412 |
86.6652173204499 |
2728454.80107389 |
T |
23 |
CATAB v2.0f-lin.ifort 2020-Dec-18 02:50:31 |
2020-Dec-18 02:50 |
2197-Nov-20 01:50 |
00:05 |
Jupiter |
1.92570377636625 |
1.9257023259162 |
1.92570522681541 |
2.76077155966181 |
2.59656654621015 |
2523821.576144888 |
4.80871281852535 |
63.7935427653326 |
18.5538210576588 |
73.8248331765222 |
989379.304687897 |
T |
23 |
CATAB v2.0f-lin.ifort 2020-Dec-18 02:50:31 |
2020-Dec-18 02:50 |
|
|